Location: アルンシュタイン
(50.0000°N, 10.0000°E)
Time: 21:52:44
(UTC+02:00)

Tiangong - Visible Passes

Search period start: 01 October 2023 00:00
Search period end: 11 October 2023 00:00
Orbit: 372 x 384 km, 41.5° (Epoch: 01 October)

Date Brightness Start Highest point End Pass type
(mag) Time Alt. Az. Time Alt. Az. Time Alt. Az.
01 Oct 0.1 20:36:06 10° SSW 20:37:27 14° S 20:37:27 14° S visible
02 Oct 0.3 19:35:11 10° S 19:36:20 11° SSE 19:37:27 10° SE visible
02 Oct 0.6 21:10:07 10° SW 21:10:36 12° SW 21:10:36 12° SW visible
03 Oct -0.1 20:08:30 10° SW 20:10:34 16° S 20:11:34 14° SSE visible
04 Oct 0.0 20:42:38 10° SW 20:44:28 17° SSW 20:44:28 17° SSW visible
05 Oct 0.0 19:40:43 10° SW 19:42:53 17° S 19:45:03 10° SE visible
06 Oct 0.1 20:14:54 10° SW 20:16:54 16° S 20:17:56 14° SSE visible
07 Oct 0.7 20:50:03 10° SSW 20:50:36 11° SSW 20:50:36 11° SSW visible
08 Oct 0.4 19:46:58 10° SW 19:48:39 14° SSW 19:50:21 10° SSE visible
10 Oct 0.7 19:19:00 10° SW 19:20:02 11° SSW 19:21:05 10° S visible
